Tracking 18032 objects as of 27-March-2017
HD Live streaming from Space Station
objects crossing your sky now

FALCON 9 R/B

Track FALCON 9 R/B now!
10-day predictions


NORAD ID: 37253
Int'l Code: 2010-066K
Perigee: 300.5 km
Apogee: 10,292.0 km
Inclination: 34.5 °
Period: 209.0 minutes
Semi major axis: 11667 km
RCS: 20.0149 m2 (large)
Launch date: December 8, 2010
Source: United States (US)
Launch site: AIR FORCE EASTERN TEST RANGE (AFETR)

Note: This is a ROCKET BODY
Your satellite tracking list
Your tracking list is empty





NASA's NSSDC Master Catalog

Two Line Element Set (TLE):
1 37253U 10066K   17084.60290413 +.00003530 +00000-0 +35332-3 0  9998
2 37253 034.4996 115.6649 4281829 021.2557 352.2206 06.88889618154704
Source of the keplerian elements: AFSPC